Location: Mentone
(34.5413°N, 85.5351°W)
Time: 04:25:48
(UTC-06:00)

S-56A Canister/Altair - Visible Passes

Search period start: 26 January 2015 00:00
Search period end: 05 February 2015 00:00
Orbit: 634 x 2502 km, 38.9° (Epoch: 25 January)

Date Brightness Start Highest point End Pass type
(mag) Time Alt. Az. Time Alt. Az. Time Alt. Az.
26 Jan 10.0 17:45:37 10° WNW 17:59:19 85° NNE 18:14:35 10° ESE visible
26 Jan 10.3 19:51:53 10° WNW 20:06:19 58° SW 20:12:35 37° SSE visible
26 Jan 11.2 22:01:19 10° W 22:10:06 21° WSW 22:10:06 21° WSW visible
27 Jan 10.0 17:12:58 10° WNW 17:26:03 82° NNE 17:41:26 10° ESE visible
27 Jan 10.2 19:18:54 10° WNW 19:33:12 63° SSW 19:43:01 25° SE visible
27 Jan 11.1 21:27:25 10° W 21:38:44 25° SW 21:40:34 24° SW visible
28 Jan 10.2 18:46:01 10° WNW 19:00:03 68° SSW 19:13:39 13° SE visible
28 Jan 11.1 20:53:48 10° W 21:05:52 29° SW 21:11:14 22° SSW visible
29 Jan 10.2 18:13:15 10° WNW 18:26:53 72° SSW 18:41:49 10° SE visible
29 Jan 11.0 20:20:23 10° W 20:32:57 33° SW 20:42:08 16° S visible
30 Jan 10.2 17:40:35 10° WNW 17:53:43 77° SSW 18:08:54 10° SE visible
30 Jan 10.9 19:47:10 10° WNW 19:59:59 37° SW 20:12:25 10° SSE visible
31 Jan 10.9 19:14:05 10° WNW 19:26:58 41° SW 19:40:05 10° SSE visible
31 Jan 11.8 21:28:27 10° WSW 21:32:21 11° SW 21:34:30 10° SW visible
01 Feb 10.8 18:41:10 10° WNW 18:53:56 45° SW 19:07:35 10° SSE visible
01 Feb 11.7 20:52:30 10° WSW 20:59:31 14° SW 21:05:00 10° SSW visible
02 Feb 10.7 18:08:22 10° WNW 18:20:52 49° SW 18:34:58 10° SSE visible
02 Feb 11.7 20:18:01 10° W 20:26:38 17° SW 20:34:05 10° SSW visible
03 Feb 10.7 17:35:42 10° WNW 17:47:50 54° SW 18:02:13 10° SE visible
03 Feb 11.7 19:44:09 10° W 19:53:43 20° SW 20:02:36 10° S visible
04 Feb 11.6 19:10:39 10° W 19:20:47 23° SW 19:30:47 10° S visible
